Wind_Speed
32 33 31 29 27 25 24 23 22 20 19 19 19 18 18 17 15 14 12 11 9 7 6 5 4 3 3 3 3 3 3 3 3 3 4 5 6 7 9 10 12 13
33 33 31 29 27 26 23 22 21 20 20 20 19 18 18 17 15 14 12 11 9 8 7 5 4 4 2 2 1 1 1 2 2 3 3 4 5 7 9 11 12 13
34 33 31 29 27 26 24 23 22 21 21 21 20 19 18 17 16 15 13 11 9 9 8 7 6 4 3 2 1 1 2 2 3 3 3 5 6 7 9 11 12 12
35 33 31 29 27 26 25 24 24 23 22 22 21 20 19 18 16 15 14 12 11 10 10 8 7 5 4 3 3 4 4 4 3 3 4 5 6 8 9 11 11 11
35 34 32 30 28 27 26 25 25 24 23 22 22 21 20 18 17 15 14 13 13 13 11 9 8 6 5 5 6 6 6 5 4 4 5 5 6 8 9 10 11 11
36 34 33 31 29 28 27 26 25 24 24 23 23 22 21 19 17 15 15 15 15 14 12 10 8 8 7 8 8 8 7 6 5 5 5 6 6 8 9 10 10 10
37 36 34 32 30 29 27 26 26 25 24 24 23 22 21 19 18 17 16 16 16 14 13 11 10 9 10 10 10 9 8 6 5 5 5 6 6 8 9 10 10 10
38 37 35 34 32 30 29 28 27 26 26 25 24 23 21 20 19 18 18 18 17 15 14 13 12 11 12 12 11 10 8 6 6 6 6 6 7 8 9 10 10 10
39 38 36 35 33 32 31 29 28 28 27 26 25 24 22 21 20 20 20 19 17 16 15 14 14 13 14 13 11 10 8 6 6 6 6 7 8 9 10 10 11 11
40 38 37 36 35 33 32 30 30 29 28 27 26 25 24 23 22 22 21 20 18 17 16 15 15 15 15 13 12 10 9 7 7 7 7 8 9 10 11 11 12 12
40 39 39 37 36 34 33 32 31 30 30 28 28 27 25 25 24 23 22 21 19 17 17 16 16 16 15 14 13 12 10 8 8 8 9 9 10 11 12 12 13 13
42 41 40 39 37 35 34 33 32 32 31 30 29 28 27 26 25 24 23 21 19 18 18 18 18 17 16 15 14 13 11 10 10 10 10 11 12 12 13 14 14 14
44 43 41 39 37 36 35 34 34 33 32 31 31 30 29 28 26 25 23 21 20 20 20 19 19 18 17 16 16 14 13 12 11 12 12 13 13 14 15 15 15 15
44 43 41 39 38 36 36 35 35 34 33 33 32 31 30 28 27 25 24 23 22 21 21 21 20 20 19 18 17 16 15 14 13 13 14 14 15 16 16 17 17 17
44 43 41 40 39 38 37 37 36 36 35 34 33 32 31 29 27 26 25 25 24 23 23 23 22 21 20 19 19 17 17 16 15 15 16 16 17 17 18 19 19 19
45 44 42 41 41 40 39 38 37 37 36 36 35 33 32 30 29 29 28 26 26 25 25 25 23 22 21 20 19 19 19 18 17 17 18 18 19 19 20 20 20 20
45 44 43 42 42 40 39 39 38 38 37 36 35 34 33 32 31 31 29 28 28 27 26 26 24 23 22 21 21 21 21 20 19 19 20 21 21 21 21 22 21 21
45 44 43 43 42 41 40 40 39 39 38 37 37 35 34 34 33 32 31 30 29 29 28 27 25 24 23 23 23 23 23 22 21 22 22 23 23 23 23 23 23 22
45 45 44 43 42 41 41 40 40 39 39 38 37 36 36 35 34 33 32 31 31 30 29 29 27 26 25 25 25 25 24 24 24 24 25 25 25 25 25 25 24 24
45 44 43 42 42 41 41 41 40 40 39 38 38 37 37 36 35 34 34 33 32 31 31 30 29 28 27 27 27 26 26 26 26 26 27 27 27 27 27 26 26 26
44 43 43 42 41 41 41 40 40 40 39 39 39 38 37 36 36 35 35 33 32 32 32 32 31 29 29 29 29 28 29 29 29 29 29 29 29 29 29 28 28 28
42 42 42 42 41 41 41 40 40 40 40 40 39 38 37 37 36 36 35 34 33 33 34 33 32 31 31 31 31 31 31 31 32 32 32 32 31 31 30 30 30 30
39 40 41 41 41 41 41 40 40 40 40 39 39 38 38 38 37 36 35 35 34 34 35 34 33 32 32 33 33 33 33 34 34 35 35 35 34 33 33 33 32 31
35 37 38 38 39 39 40 40 40 40 39 38 38 38 37 37 36 35 35 35 35 35 35 35 34 33 33 34 35 35 35 36 37 37 37 37 36 35 35 35 33 32
28 31 33 35 36 37 38 38 39 38 38 37 37 37 37 36 36 35 35 35 36 36 36 36 35 34 34 35 36 37 37 37 38 39 39 38 37 36 36 35 33 32
23 25 27 29 30 32 32 34 35 36 36 37 37 37 37 36 35 35 35 35 36 36 36 36 36 35 35 36 37 37 38 38 39 40 40 38 37 36 36 35 33 33
Wind_Direction
188 189 190 188 187 188 186 183 182 183 183 181 179 176 172 170 168 162 159 157 149 144 139 134 130 121 99 78 67 41 22 11 2 354 350 347 342 344 349 350 351 351
189 191 192 191 189 188 187 184 183 184 182 180 179 178 175 173 171 165 164 162 156 157 160 159 158 151 135 114 84 17 348 331 327 329 332 335 337 343 348 349 350 347
190 193 194 193 191 189 187 184 184 185 184 182 181 181 180 178 176 171 168 168 170 174 179 180 178 173 173 185 214 250 266 279 291 304 316 326 333 340 344 346 346 341
191 194 195 194 193 191 190 187 187 187 186 185 184 185 185 183 181 177 174 177 184 189 192 190 190 191 198 217 233 242 251 257 267 285 302 317 327 335 342 343 342 338
192 195 196 195 195 194 194 192 191 189 189 189 189 189 189 188 186 184 185 189 193 197 201 199 199 206 215 229 238 243 246 250 262 281 297 313 326 336 343 342 339 336
193 195 197 197 197 197 196 195 194 194 193 194 194 193 192 192 192 193 195 199 200 202 205 208 212 216 224 234 239 242 243 250 266 282 297 313 330 340 343 340 336 332
196 196 198 199 198 198 198 197 197 198 197 197 197 197 196 196 198 201 202 205 206 208 211 216 220 222 231 238 240 241 243 251 270 285 298 314 331 339 340 336 331 329
198 198 199 200 199 198 199 199 200 200 200 200 200 201 201 202 205 206 207 209 211 213 217 220 222 228 236 241 240 241 244 253 271 286 298 310 325 332 333 331 328 327
201 200 200 201 201 200 200 200 202 202 202 203 203 205 206 207 210 211 212 214 215 218 222 223 227 233 238 241 242 242 243 253 269 282 293 304 315 322 325 325 324 324
202 202 203 204 203 202 202 202 203 204 205 205 207 209 211 211 212 214 216 218 220 223 226 228 232 237 239 241 242 242 244 254 267 277 286 297 306 313 317 318 318 319
204 205 206 206 205 204 204 204 205 207 208 208 210 212 214 215 216 217 218 221 225 228 230 232 236 239 241 242 243 243 247 255 263 272 282 291 299 304 308 309 310 311
206 207 208 208 207 206 206 207 208 210 210 212 215 216 217 218 219 221 223 225 227 230 231 234 238 240 241 243 245 246 250 254 261 269 279 287 293 297 300 301 302 304
209 210 210 210 210 209 209 209 211 213 214 216 218 219 220 221 222 224 226 228 229 230 232 235 238 240 241 243 247 249 251 254 259 268 278 284 289 293 295 295 296 297
212 212 212 211 212 212 212 212 213 215 217 220 221 222 223 224 226 228 228 229 230 230 232 235 238 240 242 246 249 250 252 255 260 268 276 283 287 291 293 292 291 292
214 214 213 213 214 214 214 214 216 218 220 222 223 225 226 227 227 229 230 231 231 231 232 235 238 241 245 248 250 251 253 256 261 268 276 281 285 290 292 291 289 288
216 216 215 215 216 216 217 217 218 220 222 224 225 226 228 228 228 229 230 232 233 233 235 237 239 242 245 247 250 253 254 257 262 269 275 280 284 288 291 291 288 286
218 218 218 218 218 219 219 219 220 222 224 226 227 228 229 230 230 231 232 233 234 235 237 239 242 244 244 247 251 254 255 258 263 269 274 279 283 287 290 290 288 286
220 221 220 220 221 221 222 222 223 224 226 227 229 230 232 232 233 233 234 235 236 237 238 240 242 243 244 248 253 255 257 260 264 269 274 278 282 286 288 289 288 286
223 223 223 223 223 224 224 224 225 227 228 230 232 233 235 235 235 236 236 237 238 239 241 242 242 242 243 249 253 255 258 261 265 270 274 278 281 285 287 288 288 286
225 226 226 227 226 226 226 227 228 230 231 233 234 236 237 237 238 238 239 240 241 242 244 244 243 242 245 249 253 256 259 263 266 270 274 278 281 284 286 287 288 287
229 229 230 230 229 229 229 230 231 233 234 235 237 238 240 241 241 242 243 243 244 245 246 246 245 244 247 250 254 256 260 264 267 271 275 278 281 282 285 286 286 286
234 234 233 232 231 231 232 233 234 235 236 237 239 241 243 244 244 244 245 246 247 247 247 248 248 246 248 252 255 257 260 265 269 273 276 278 280 282 284 285 285 284
240 238 237 235 234 234 235 237 238 238 239 239 241 243 246 247 247 246 248 249 249 249 249 250 251 250 251 254 257 259 261 265 270 274 276 279 281 282 283 283 283 282
244 243 241 239 238 239 240 240 241 241 242 242 244 247 250 252 251 250 251 252 251 251 251 252 254 253 254 256 259 261 263 267 270 273 275 278 280 281 283 283 283 282
247 247 246 244 244 244 244 245 245 246 246 246 248 250 253 255 255 254 254 254 254 254 253 254 256 255 255 257 259 262 264 267 270 272 274 276 278 280 282 282 282 281
245 247 248 247 248 249 249 249 250 249 249 250 251 253 255 256 256 256 256 256 255 255 255 256 257 258 257 258 260 262 265 267 269 270 272 274 277 279 280 280 280 279
Height
1547 1550 1552 1554 1556 1557 1558 1559 1561 1562 1564 1565 1567 1568 1569 1570 1571 1572 1573 1574 1574 1575 1576 1576 1576 1576 1576 1576 1576 1577 1577 1577 1577 1577 1577 1577 1577 1577 1577 1577 1577 1576
1546 1549 1551 1553 1554 1556 1557 1559 1560 1561 1563 1564 1566 1567 1568 1569 1570 1571 1571 1572 1573 1574 1575 1575 1575 1575 1575 1575 1576 1576 1576 1576 1576 1576 1576 1575 1576 1576 1576 1576 1576 1575
1545 1547 1550 1551 1553 1554 1556 1557 1559 1560 1561 1563 1564 1566 1567 1568 1569 1569 1570 1571 1572 1573 1574 1574 1574 1574 1574 1574 1574 1575 1575 1575 1575 1574 1574 1574 1574 1574 1574 1575 1574 1574
1543 1546 1548 1551 1552 1553 1554 1555 1557 1558 1560 1561 1563 1565 1566 1567 1567 1567 1568 1569 1571 1572 1573 1572 1572 1572 1572 1573 1573 1574 1574 1573 1573 1573 1573 1573 1573 1573 1573 1573 1573 1572
1542 1544 1547 1549 1550 1551 1552 1553 1555 1556 1558 1560 1562 1563 1564 1565 1566 1566 1567 1568 1570 1571 1571 1571 1570 1570 1571 1572 1572 1572 1572 1572 1572 1571 1571 1571 1571 1571 1571 1571 1571 1570
1540 1543 1545 1547 1548 1549 1551 1552 1553 1555 1557 1559 1560 1562 1563 1563 1564 1564 1565 1567 1568 1569 1569 1569 1568 1569 1569 1570 1571 1571 1571 1570 1570 1569 1569 1569 1569 1569 1569 1569 1569 1569
1538 1540 1542 1544 1546 1548 1549 1550 1552 1554 1555 1557 1559 1560 1561 1561 1562 1563 1564 1566 1566 1567 1567 1567 1567 1567 1568 1569 1569 1569 1569 1568 1568 1567 1567 1567 1567 1567 1567 1567 1567 1567
1535 1537 1539 1541 1543 1545 1547 1548 1550 1552 1553 1555 1556 1558 1559 1560 1560 1561 1563 1564 1564 1565 1565 1565 1565 1566 1567 1567 1568 1567 1567 1566 1566 1566 1566 1565 1565 1565 1566 1566 1565 1565
1532 1534 1536 1538 1540 1542 1544 1546 1548 1550 1551 1553 1554 1556 1557 1558 1559 1560 1561 1561 1562 1562 1562 1563 1563 1564 1565 1566 1566 1566 1565 1564 1564 1564 1564 1564 1564 1564 1564 1564 1563 1563
1529 1532 1534 1535 1537 1539 1541 1543 1545 1547 1549 1551 1552 1553 1554 1555 1556 1558 1559 1559 1559 1560 1560 1560 1561 1562 1563 1564 1564 1564 1563 1562 1562 1562 1562 1562 1562 1562 1562 1562 1561 1561
1526 1528 1530 1532 1534 1537 1539 1541 1543 1545 1546 1548 1549 1551 1552 1553 1554 1555 1556 1556 1557 1557 1558 1559 1560 1561 1561 1561 1561 1561 1561 1561 1560 1561 1561 1560 1560 1560 1560 1560 1560 1559
1522 1524 1526 1529 1531 1534 1536 1538 1540 1542 1544 1545 1547 1548 1549 1550 1551 1552 1553 1554 1554 1555 1556 1557 1558 1559 1559 1559 1559 1559 1559 1559 1559 1559 1559 1559 1558 1558 1558 1558 1558 1557
1518 1520 1523 1526 1529 1531 1533 1535 1537 1539 1541 1542 1544 1545 1546 1547 1548 1549 1550 1551 1551 1552 1553 1555 1556 1557 1557 1557 1557 1556 1556 1556 1557 1557 1557 1556 1556 1556 1556 1556 1555 1555
1515 1518 1520 1523 1526 1528 1530 1532 1534 1536 1538 1540 1541 1542 1543 1545 1546 1547 1548 1548 1549 1550 1551 1552 1553 1554 1554 1554 1554 1554 1554 1554 1554 1554 1554 1554 1554 1554 1553 1553 1553 1552
1512 1515 1517 1520 1522 1525 1527 1529 1531 1533 1535 1536 1538 1539 1541 1542 1544 1545 1545 1546 1546 1547 1548 1549 1550 1551 1551 1551 1551 1551 1551 1551 1552 1552 1552 1552 1552 1551 1551 1551 1550 1550
1509 1512 1514 1517 1519 1521 1524 1526 1528 1530 1532 1533 1535 1537 1538 1540 1541 1542 1542 1543 1543 1544 1545 1546 1547 1548 1549 1549 1549 1548 1548 1548 1549 1549 1549 1549 1549 1548 1548 1548 1547 1547
1506 1509 1511 1514 1516 1519 1521 1523 1525 1527 1529 1531 1532 1534 1535 1536 1538 1538 1539 1540 1540 1541 1542 1543 1544 1545 1546 1546 1546 1546 1545 1545 1546 1546 1546 1546 1546 1545 1545 1545 1544 1544
1504 1506 1508 1511 1513 1516 1518 1520 1523 1524 1526 1528 1529 1531 1532 1533 1534 1535 1536 1537 1537 1538 1540 1540 1542 1543 1543 1543 1543 1543 1543 1542 1543 1543 1543 1543 1543 1542 1542 1542 1541 1541
1501 1503 1505 1508 1511 1513 1516 1518 1520 1521 1523 1524 1526 1528 1529 1530 1531 1532 1533 1534 1534 1535 1537 1538 1539 1540 1540 1540 1540 1540 1540 1539 1540 1540 1540 1540 1539 1539 1539 1538 1538 1538
1499 1500 1503 1506 1508 1511 1512 1514 1516 1518 1520 1522 1523 1524 1525 1526 1528 1529 1530 1530 1531 1533 1534 1535 1536 1537 1537 1537 1537 1537 1536 1536 1537 1537 1536 1536 1536 1536 1535 1535 1535 1534
1497 1499 1501 1503 1505 1507 1509 1511 1513 1515 1516 1518 1519 1520 1522 1523 1525 1526 1526 1528 1529 1530 1531 1532 1533 1534 1534 1534 1533 1534 1533 1533 1533 1533 1533 1533 1533 1532 1532 1531 1531 1530
1494 1496 1498 1500 1502 1504 1505 1507 1510 1511 1513 1514 1516 1517 1519 1520 1522 1522 1523 1525 1526 1527 1527 1528 1529 1530 1530 1530 1530 1530 1530 1529 1529 1529 1529 1529 1529 1529 1528 1528 1527 1526
1492 1493 1495 1497 1499 1500 1502 1504 1506 1507 1509 1511 1513 1514 1515 1517 1518 1519 1520 1521 1522 1523 1524 1524 1526 1527 1527 1527 1527 1527 1527 1526 1525 1525 1525 1524 1525 1525 1524 1523 1523 1522
1488 1490 1492 1494 1496 1497 1499 1501 1503 1505 1507 1508 1510 1511 1512 1513 1515 1516 1517 1518 1518 1519 1520 1521 1522 1524 1524 1523 1523 1523 1523 1522 1522 1521 1520 1520 1521 1520 1520 1519 1518 1518
1485 1488 1489 1491 1493 1494 1496 1498 1500 1502 1504 1506 1507 1508 1509 1511 1512 1513 1513 1514 1515 1516 1517 1517 1518 1519 1520 1520 1519 1520 1519 1519 1518 1517 1516 1516 1516 1516 1515 1514 1514 1513
1483 1485 1486 1488 1490 1492 1494 1496 1498 1500 1501 1502 1503 1505 1506 1507 1508 1509 1510 1510 1511 1512 1513 1513 1514 1515 1516 1516 1516 1516 1515 1515 1514 1512 1512 1512 1512 1511 1510 1510 1509 1508